This is the latest recevied weather packets stored in our database for station/object ZS2JO. If no packets are shown the sender has not sent any weather packets the latest 10 day(s).
| Time | Temp. | Humidity | Pressure | Rain* | Wind** | Luminosity | Snow |
|---|---|---|---|---|---|---|---|
| 1777442367 | 13.89° C | 80% | 1029.6 hPa | 0 mm | - | 111 W/m² | - |
| 1777442064 | 13.89° C | 81% | 1029.6 hPa | 0 mm | - | 101 W/m² | - |
| 1777441759 | 13.33° C | 82% | 1029.6 hPa | 0 mm | - | 89 W/m² | - |
| 1777441454 | 13.33° C | 84% | 1029.6 hPa | 0 mm | - | 76 W/m² | - |
| 1777441150 | 12.78° C | 85% | 1029.6 hPa | 0 mm | - | 68 W/m² | - |
| 1777440846 | 12.78° C | 85% | 1029.4 hPa | 0 mm | - | 38 W/m² | - |
| 1777440541 | 12.78° C | 85% | 1029.4 hPa | 0 mm | - | 35 W/m² | - |
| 1777440237 | 12.78° C | 85% | 1029.4 hPa | 0 mm | - | 29 W/m² | - |
| 1777439934 | 12.78° C | 85% | 1029.5 hPa | 0 mm | - | 22 W/m² | - |
| 1777439629 | 12.78° C | 86% | 1029.4 hPa | 0 mm | - | 18 W/m² | - |
| 1777439325 | 12.78° C | 87% | 1029.3 hPa | 0 mm | - | 14 W/m² | - |
| 1777439015 | 12.78° C | 88% | 1029.5 hPa | 0 mm | - | 11 W/m² | - |
| 1777438714 | 12.78° C | 88% | 1029.5 hPa | 0 mm | - | 7 W/m² | - |
| 1777438409 | 12.78° C | 88% | 1029.4 hPa | 0 mm | - | 5 W/m² | - |
| 1777438105 | 12.78° C | 86% | 1029.6 hPa | 0 mm | - | 2 W/m² | - |
| 1777437801 | 12.78° C | 86% | 1029.3 hPa | 0 mm | - | 1 W/m² | - |
| 1777437497 | 12.78° C | 84% | 1029.2 hPa | 0 mm | - | 0 W/m² | - |
| 1777437195 | 12.78° C | 82% | 1029.3 hPa | 0 mm | - | 0 W/m² | - |
| 1777436891 | 12.78° C | 82% | 1029.3 hPa | 0 mm | - | 0 W/m² | - |
| 1777436589 | 12.78° C | 83% | 1029.4 hPa | 0 mm | - | 0 W/m² | - |
| 1777436285 | 12.78° C | 82% | 1029.3 hPa | 0 mm | - | 0 W/m² | - |
| 1777435980 | 12.78° C | 83% | 1029.3 hPa | 0 mm | - | 0 W/m² | - |
| 1777435677 | 12.78° C | 83% | 1029.3 hPa | 0 mm | - | 0 W/m² | - |
| 1777435373 | 12.78° C | 83% | 1029.2 hPa | 0 mm | - | 0 W/m² | - |
| 1777435072 | 12.22° C | 84% | 1029.2 hPa | 0 mm | - | 0 W/m² | - |
* Rain latest hour (hover to see other rain measurements)
** Current wind speed in m/s (hover to see current wind gust speed)